Tracking 28799 objects as of 18-Apr-2024
HD Live streaming from Space Station
objects crossing your sky now

DELTA 1 DEB

Track DELTA 1 DEB now!
10-day predictions


NORAD ID: 7145
Int'l Code: 1973-086DK
Perigee: 1,514.8 km
Apogee: 2,028.6 km
Inclination: 102.0 °
Period: 121.9 minutes
Semi major axis: 8142 km
RCS: 0.3002 m2 (medium)
Launch date: November 6, 1973
Source: United States (US)
Launch site: AIR FORCE WESTERN TEST RANGE (AFWTR)

Note: This is SATELLITE DEBRIS
Your satellite tracking list
Your tracking list is empty




NASA's NSSDC Master Catalog

Two Line Element Set (TLE):
1 07145U 73086DK  24108.15353656 -.00000156  00000-0 -15848-2 0  9992
2 07145 101.9901 357.2978 0315498 306.6297 211.1704 11.81551033175371
Source of the keplerian elements: AFSPC